This demonstration page uses our WeatherBlox Daily Observations layout. Learn more.

Left ArrowRight Arrow

Hourly Observations for April 4, 2022

Temp ( °F °C ) Dew Point ( °F °C ) Humidity (%) Winds ( mph kmh ) Pressure ( in mb ) Visibility ( mi km ) Precip ( " mm )
3:56 am 03:56 Clear 35 1.5 28 -2.5 75 75 NNW 15 24 30.02 1017 10 16 0.00 0.00
4:56 am 04:56 Mostly Clear 34 1.2 27 -2.9 74 74 NNW 9 15 30.03 1017 10 16 0.00 0.00
5:56 am 05:56 Clear 33 0.8 27 -3 76 76 N 9 15 30.05 1018 10 16 0.00 0.00
6:56 am 06:56 Mostly Cloudy 34 1.1 27 -2.8 76 76 N 7 11 30.06 1018 10 16 0.00 0.00
7:56 am 07:56 Mostly Cloudy 34 1.1 27 -3 74 74 NNE 6 9 30.07 1018 10 16 0.00 0.00
8:56 am 08:56 Mostly Sunny 37 2.8 28 -2.5 68 68 ENE 3 6 30.09 1019 10 16 0.00 0.00
9:56 am 09:56 Sunny 39 3.8 27 -2.6 63 63 NW 3 6 30.08 1019 10 16 0.00 0.00
10:56 am 10:56 Sunny 42 5.8 28 -2.1 57 57 WSW 3 6 30.08 1019 10 16 0.00 0.00
11:56 am 11:56 Sunny 46 7.6 28 -2.4 50 50 Calm 30.07 1018 10 16 0.00 0.00
12:56 pm 12:56 Sunny 49 9.5 28 -2.5 43 43 Calm 30.02 1017 10 16 0.00 0.00
1:41 pm 13:41 Sunny 52 11 27 -3 38 38 SSW 3 6 29.98 1015 10 16 0.00 0.00
1:56 pm 13:56 Sunny 52 11.2 26 -3.3 36 36 W 5 7 29.98 1015 10 16 0.00 0.00
2:56 pm 14:56 Mostly Sunny 55 12.7 26 -3.6 32 32 Calm 29.94 1014 10 16 0.00 0.00
3:56 pm 15:56 Mostly Sunny 57 13.9 25 -3.9 29 29 Calm 29.91 1013 10 16 0.00 0.00
4:56 pm 16:56 Sunny 60 15.3 23 -5.2 24 24 ESE 5 7 29.87 1012 10 16 0.00 0.00
5:56 pm 17:56 Sunny 59 15.2 25 -3.7 27 27 SSE 13 20 29.83 1010 10 16 0.00 0.00
6:56 pm 18:56 Sunny 57 14 29 -1.6 34 34 S 12 19 29.81 1010 10 16 0.00 0.00
7:56 pm 19:56 Clear 53 11.9 28 -2 38 38 SSE 7 11 29.80 1009 10 16 0.00 0.00
8:56 pm 20:56 Clear 49 9.6 28 -2.1 44 44 SE 7 11 29.79 1009 10 16 0.00 0.00
9:56 pm 21:56 Clear 46 7.9 29 -1.6 51 51 SSE 7 11 29.79 1009 10 16 0.00 0.00
10:56 pm 22:56 Clear 46 7.6 30 -0.9 55 55 SSE 6 9 29.78 1008 10 16 0.00 0.00
11:56 pm 23:56 Mostly Clear 45 7.4 30 -1.1 55 55 SE 5 7 29.78 1008 10 16 0.00 0.00

Powered by AerisWeather